Weather in Veseloye

Russia / Belgorod Oblast     50°37′57″N   38°09′23″E
temp.,
°C
wind,
m/s
gust,
m/s
humid.,
%
clouds,
%
prec.,
mm/h
press.,
hPa
HPBL,
m
7 may, fri
fri700:00+11wnw4793100 0.9 1010342
03:00+9nw5895100 7.1 1012456
06:00+8nnw3693100 2.6 1013473
09:00+11nnw567122 2.6 1015948
12:00+15nw345115 0.0 10151784
15:00+16wnw344189 0.0 10152244
18:00+15wsw225195 0.0 10151876
21:00+11sse2260100 0.0 101613
8 may, sat
sat800:00+9se486899 0.0 1015129
03:00+9sse61572100 0.0 1014409
06:00+10sse71673100 0.0 1013507
09:00+11s61383100 0.3 1011610
12:00+13s81579100 0.2 1010889
15:00+12ssw51393100 2.1 1009789
18:00+11wsw5895100 3.1 1009511
21:00+8wnw51093100 4.8 1011431
9 may, sun
sun900:00+8w4990100 0.4 1013540
03:00+5wnw41088100 0.6 1016568
06:00+6nnw61188100 0.0 1015811
09:00+7nnw6982100 0.1 1017918
12:00+9n71060100 0.1 10181303
15:00+12n8115099 0.1 10192047
18:00+11n8116198 0.1 10201246
21:00+7n61369100 0.1 1023551
10 may, mon
mon1000:00+5n61379100 0.0 1024557
03:00+4n7157999 0.0 1025472
06:00+5n8167499 0.0 1026859
09:00+9nne10166173 0.0 10261138
12:00+13nne10145199 0.0 10251344
15:00+11nne81561100 0.0 1025956
18:00+11ne81665100 0.0 1025821
21:00+10nne6146170 0.0 1027578
11 may, tue
tue1100:00+9ne8176912 0.0 1024552
03:00+8ne7167710 0.0 1024430
06:00+8ne71580100 0.0 1025470
09:00+10ne7158287 0.0 1024502
12:00+13ene81380100 0.0 1023888
15:00+14ene6108319 0.1 10241044
18:00+13ese3684100 0.3 1024446
21:00+11n1197100 3.4 102221